{"data":{"norad_id":63650,"epoch":"2026-05-25T02:26:59.990208Z","epoch_age_seconds":66466,"freshness":"FRESH","line1":"1 63650U 25083S   26145.10208322  .00013807  00000+0  51028-3 0  9991","line2":"2 63650  42.9964 293.6268 0001287 299.2315  60.8408 15.27582797 61759","mean_motion":15.27582797,"eccentricity":0.0001287,"inclination_deg":42.9964,"raan_deg":293.6268,"arg_perigee_deg":299.2315,"mean_anomaly_deg":60.8408,"bstar":0.00051028,"rev_number":6175,"period_min":94.266576111488,"perigee_km":482.15768725555,"apogee_km":483.92375440089,"semimajor_km":6861.1777208282,"source":"CELESTRAK","updated_at":"2026-05-25T13:38:20.055417Z"}}